owner,sensor,date,latitude,longitude,vertical_datum,sea_water_temperature,qcFlag
Shell,ioos:station:wmo:42902:2,2021-05-01T00:05:00Z,28.5984,-88.0176,11.0,23.9,11111222
Shell,ioos:station:wmo:42902:2,2021-05-01T00:14:00Z,28.5984,-88.0176,11.0,23.9,11111222
Shell,ioos:station:wmo:42902:2,2021-05-01T00:24:00Z,28.5984,-88.0176,11.0,23.9,11111222
Shell,ioos:station:wmo:42902:2,2021-05-01T00:34:00Z,28.5984,-88.0176,11.0,24.0,11111222
Shell,ioos:station:wmo:42902:2,2021-05-01T00:44:00Z,28.5984,-88.0176,11.0,24.0,11111222
Shell,ioos:station:wmo:42902:2,2021-05-01T00:54:00Z,28.5984,-88.0176,11.0,24.0,11111222
Shell,ioos:station:wmo:42902:2,2021-05-01T01:04:00Z,28.5989,-88.0189,11.0,24.0,11111222
Shell,ioos:station:wmo:42902:2,2021-05-01T01:14:00Z,28.5989,-88.0189,11.0,24.0,11111222
Shell,ioos:station:wmo:42902:2,2021-05-01T01:24:00Z,28.5990,-88.0189,11.0,24.1,11111222
Shell,ioos:station:wmo:42902:2,2021-05-01T01:34:00Z,28.5990,-88.0189,11.0,24.1,11111222
Shell,ioos:station:wmo:42902:2,2021-05-01T01:44:00Z,28.5990,-88.0189,11.0,24.1,11111222
Shell,ioos:station:wmo:42902:2,2021-05-01T01:54:00Z,28.5990,-88.0189,11.0,24.0,11111222
Shell,ioos:station:wmo:42902:2,2021-05-01T02:04:00Z,28.5990,-88.0189,11.0,24.0,11111222
Shell,ioos:station:wmo:42902:2,2021-05-01T02:14:00Z,28.5990,-88.0189,11.0,24.1,11111222
Shell,ioos:station:wmo:42902:2,2021-05-01T02:24:00Z,28.5989,-88.0189,11.0,24.1,11111222
Shell,ioos:station:wmo:42902:2,2021-05-01T02:34:00Z,28.5990,-88.0189,11.0,24.0,11111222
Shell,ioos:station:wmo:42902:2,2021-05-01T02:45:00Z,28.5990,-88.0189,11.0,24.1,11111222
Shell,ioos:station:wmo:42902:2,2021-05-01T02:54:00Z,28.5990,-88.0189,11.0,24.1,11111222
Shell,ioos:station:wmo:42902:2,2021-05-01T03:04:00Z,28.5990,-88.0189,11.0,24.1,11111222
Shell,ioos:station:wmo:42902:2,2021-05-01T03:14:00Z,28.5990,-88.0189,11.0,24.1,11111222
Shell,ioos:station:wmo:42902:2,2021-05-01T03:24:00Z,28.5990,-88.0189,11.0,24.1,11111222
Shell,ioos:station:wmo:42902:2,2021-05-01T03:34:00Z,28.5990,-88.0189,11.0,24.1,11111222
Shell,ioos:station:wmo:42902:2,2021-05-01T03:44:00Z,28.5990,-88.0189,11.0,24.1,11111222
Shell,ioos:station:wmo:42902:2,2021-05-01T03:55:00Z,28.5990,-88.0189,11.0,24.1,11111222
Shell,ioos:station:wmo:42902:2,2021-05-01T04:04:00Z,28.5990,-88.0189,11.0,24.1,11111222
Shell,ioos:station:wmo:42902:2,2021-05-01T04:14:00Z,28.5990,-88.0189,11.0,24.1,11111222
Shell,ioos:station:wmo:42902:2,2021-05-01T04:25:00Z,28.5990,-88.0189,11.0,24.1,11111222
Shell,ioos:station:wmo:42902:2,2021-05-01T04:34:00Z,28.5990,-88.0189,11.0,24.1,11111222
Shell,ioos:station:wmo:42902:2,2021-05-01T04:44:00Z,28.5990,-88.0189,11.0,24.1,11111222
Shell,ioos:station:wmo:42902:2,2021-05-01T04:54:00Z,28.5990,-88.0189,11.0,24.1,11111222
Shell,ioos:station:wmo:42902:2,2021-05-01T05:04:00Z,28.5990,-88.0189,11.0,24.1,11111222
Shell,ioos:station:wmo:42902:2,2021-05-01T05:14:00Z,28.5990,-88.0189,11.0,24.1,11111222
Shell,ioos:station:wmo:42902:2,2021-05-01T05:24:00Z,28.5990,-88.0189,11.0,24.1,11111222
Shell,ioos:station:wmo:42902:2,2021-05-01T05:35:00Z,28.5990,-88.0189,11.0,24.1,11111222
Shell,ioos:station:wmo:42902:2,2021-05-01T05:44:00Z,28.5990,-88.0189,11.0,24.1,11111222
Shell,ioos:station:wmo:42902:2,2021-05-01T05:54:00Z,28.5990,-88.0189,11.0,24.1,11111222
Shell,ioos:station:wmo:42902:2,2021-05-01T06:04:00Z,28.5990,-88.0189,11.0,24.2,11111222
Shell,ioos:station:wmo:42902:2,2021-05-01T06:14:00Z,28.5990,-88.0189,11.0,24.2,11111222
Shell,ioos:station:wmo:42902:2,2021-05-01T06:24:00Z,28.5990,-88.0189,11.0,24.2,11111222
Shell,ioos:station:wmo:42902:2,2021-05-01T06:34:00Z,28.5990,-88.0189,11.0,24.2,11111222
Shell,ioos:station:wmo:42902:2,2021-05-01T06:45:00Z,28.5989,-88.0189,11.0,24.2,11111222
Shell,ioos:station:wmo:42902:2,2021-05-01T06:54:00Z,28.5990,-88.0189,11.0,24.2,11111222
Shell,ioos:station:wmo:42902:2,2021-05-01T07:04:00Z,28.5990,-88.0189,11.0,24.2,11111222
Shell,ioos:station:wmo:42902:2,2021-05-01T07:15:00Z,28.5989,-88.0189,11.0,24.3,11111222
Shell,ioos:station:wmo:42902:2,2021-05-01T07:24:00Z,28.5990,-88.0189,11.0,24.3,11111222
Shell,ioos:station:wmo:42902:2,2021-05-01T07:34:00Z,28.5990,-88.0189,11.0,24.2,11111222
Shell,ioos:station:wmo:42902:2,2021-05-01T07:45:00Z,28.5990,-88.0189,11.0,24.3,11111222
Shell,ioos:station:wmo:42902:2,2021-05-01T07:54:00Z,28.5990,-88.0189,11.0,24.3,11111222
Shell,ioos:station:wmo:42902:2,2021-05-01T08:04:00Z,28.5990,-88.0189,11.0,24.3,11111222
Shell,ioos:station:wmo:42902:2,2021-05-01T08:14:00Z,28.5990,-88.0189,11.0,24.4,11111222
Shell,ioos:station:wmo:42902:2,2021-05-01T08:24:00Z,28.5989,-88.0189,11.0,24.6,11111222
Shell,ioos:station:wmo:42902:2,2021-05-01T08:34:00Z,28.5990,-88.0189,11.0,24.7,11111222
Shell,ioos:station:wmo:42902:2,2021-05-01T08:44:00Z,28.5990,-88.0189,11.0,24.6,11111222
Shell,ioos:station:wmo:42902:2,2021-05-01T08:55:00Z,28.5990,-88.0189,11.0,24.5,11111222
Shell,ioos:station:wmo:42902:2,2021-05-01T09:04:00Z,28.5990,-88.0189,11.0,24.7,11111222
Shell,ioos:station:wmo:42902:2,2021-05-01T09:14:00Z,28.5990,-88.0189,11.0,24.6,11111222
Shell,ioos:station:wmo:42902:2,2021-05-01T09:25:00Z,28.5990,-88.0189,11.0,24.5,11111222
Shell,ioos:station:wmo:42902:2,2021-05-01T09:34:00Z,28.5990,-88.0189,11.0,24.5,11111222
Shell,ioos:station:wmo:42902:2,2021-05-01T09:44:00Z,28.5990,-88.0189,11.0,24.6,11111222
Shell,ioos:station:wmo:42902:2,2021-05-01T09:54:00Z,28.5990,-88.0189,11.0,24.4,11111222
Shell,ioos:station:wmo:42902:2,2021-05-01T10:04:00Z,28.5990,-88.0189,11.0,24.5,11111222
Shell,ioos:station:wmo:42902:2,2021-05-01T10:14:00Z,28.5990,-88.0189,11.0,24.5,11111222
Shell,ioos:station:wmo:42902:2,2021-05-01T10:24:00Z,28.5990,-88.0189,11.0,24.5,11111222
Shell,ioos:station:wmo:42902:2,2021-05-01T10:34:00Z,28.5990,-88.0189,11.0,24.4,11111222
Shell,ioos:station:wmo:42902:2,2021-05-01T10:44:00Z,28.5990,-88.0189,11.0,24.4,11111222
Shell,ioos:station:wmo:42902:2,2021-05-01T10:54:00Z,28.5990,-88.0189,11.0,24.5,11111222
Shell,ioos:station:wmo:42902:2,2021-05-01T11:04:00Z,28.5990,-88.0189,11.0,24.5,11111222
Shell,ioos:station:wmo:42902:2,2021-05-01T11:14:00Z,28.5990,-88.0189,11.0,24.4,11111222
Shell,ioos:station:wmo:42902:2,2021-05-01T11:24:00Z,28.5990,-88.0189,11.0,24.5,11111222
Shell,ioos:station:wmo:42902:2,2021-05-01T11:35:00Z,28.5990,-88.0189,11.0,24.6,11111222
Shell,ioos:station:wmo:42902:2,2021-05-01T11:44:00Z,28.5990,-88.0189,11.0,24.6,11111222
Shell,ioos:station:wmo:42902:2,2021-05-01T11:54:00Z,28.5990,-88.0189,11.0,24.6,11111222
Shell,ioos:station:wmo:42902:2,2021-05-01T12:05:00Z,28.5990,-88.0189,11.0,24.7,11111222
Shell,ioos:station:wmo:42902:2,2021-05-01T12:14:00Z,28.5990,-88.0189,11.0,24.6,11111222
Shell,ioos:station:wmo:42902:2,2021-05-01T12:24:00Z,28.5990,-88.0189,11.0,24.6,11111222
Shell,ioos:station:wmo:42902:2,2021-05-01T12:34:00Z,28.5990,-88.0189,11.0,24.6,11111222
Shell,ioos:station:wmo:42902:2,2021-05-01T12:44:00Z,28.5990,-88.0189,11.0,24.6,11111222
Shell,ioos:station:wmo:42902:2,2021-05-01T12:54:00Z,28.5990,-88.0189,11.0,24.5,11111222
Shell,ioos:station:wmo:42902:2,2021-05-01T13:04:00Z,28.5990,-88.0189,11.0,24.5,11111222
Shell,ioos:station:wmo:42902:2,2021-05-01T13:15:00Z,28.5990,-88.0189,11.0,24.5,11111222
Shell,ioos:station:wmo:42902:2,2021-05-01T13:24:00Z,28.5990,-88.0189,11.0,24.5,11111222
Shell,ioos:station:wmo:42902:2,2021-05-01T13:34:00Z,28.5990,-88.0189,11.0,24.5,11111222
Shell,ioos:station:wmo:42902:2,2021-05-01T13:45:00Z,28.5990,-88.0189,11.0,24.5,11111222
Shell,ioos:station:wmo:42902:2,2021-05-01T13:54:00Z,28.5990,-88.0189,11.0,24.5,11111222
Shell,ioos:station:wmo:42902:2,2021-05-01T14:04:00Z,28.5990,-88.0189,11.0,24.5,11111222
Shell,ioos:station:wmo:42902:2,2021-05-01T14:14:00Z,28.5990,-88.0189,11.0,24.5,11111222
Shell,ioos:station:wmo:42902:2,2021-05-01T14:24:00Z,28.5990,-88.0189,11.0,24.5,11111222
Shell,ioos:station:wmo:42902:2,2021-05-01T14:34:00Z,28.5990,-88.0189,11.0,24.5,11111222
Shell,ioos:station:wmo:42902:2,2021-05-01T14:45:00Z,28.5990,-88.0189,11.0,24.5,11111222
Shell,ioos:station:wmo:42902:2,2021-05-01T14:54:00Z,28.5990,-88.0189,11.0,24.5,11111222
Shell,ioos:station:wmo:42902:2,2021-05-01T15:04:00Z,28.5990,-88.0189,11.0,24.5,11111222
Shell,ioos:station:wmo:42902:2,2021-05-01T15:14:00Z,28.5990,-88.0189,11.0,24.6,11111222
Shell,ioos:station:wmo:42902:2,2021-05-01T15:25:00Z,28.5990,-88.0189,11.0,24.6,11111222
Shell,ioos:station:wmo:42902:2,2021-05-01T15:34:00Z,28.5990,-88.0189,11.0,24.6,11111222
Shell,ioos:station:wmo:42902:2,2021-05-01T15:44:00Z,28.5990,-88.0189,11.0,24.6,11111222
Shell,ioos:station:wmo:42902:2,2021-05-01T15:54:00Z,28.5990,-88.0189,11.0,24.7,11111222
Shell,ioos:station:wmo:42902:2,2021-05-01T16:04:00Z,28.5990,-88.0189,11.0,24.6,11111222
Shell,ioos:station:wmo:42902:2,2021-05-01T16:14:00Z,28.5990,-88.0189,11.0,24.6,11111222
Shell,ioos:station:wmo:42902:2,2021-05-01T16:24:00Z,28.5990,-88.0189,11.0,24.7,11111222
Shell,ioos:station:wmo:42902:2,2021-05-01T16:35:00Z,28.5990,-88.0189,11.0,24.7,11111222
Shell,ioos:station:wmo:42902:2,2021-05-01T16:44:00Z,28.5990,-88.0189,11.0,24.6,11111222
Shell,ioos:station:wmo:42902:2,2021-05-01T16:54:00Z,28.5990,-88.0189,11.0,24.6,11111222
Shell,ioos:station:wmo:42902:2,2021-05-01T17:05:00Z,28.5990,-88.0189,11.0,24.6,11111222
Shell,ioos:station:wmo:42902:2,2021-05-01T17:14:00Z,28.5990,-88.0189,11.0,24.6,11111222
Shell,ioos:station:wmo:42902:2,2021-05-01T17:24:00Z,28.5990,-88.0189,11.0,24.6,11111222
Shell,ioos:station:wmo:42902:2,2021-05-01T17:34:00Z,28.5990,-88.0189,11.0,24.7,11111222
Shell,ioos:station:wmo:42902:2,2021-05-01T17:44:00Z,28.5990,-88.0189,11.0,24.7,11111222
Shell,ioos:station:wmo:42902:2,2021-05-01T17:54:00Z,28.5990,-88.0189,11.0,24.7,11111222
Shell,ioos:station:wmo:42902:2,2021-05-01T18:04:00Z,28.5990,-88.0189,11.0,24.7,11111222
Shell,ioos:station:wmo:42902:2,2021-05-01T18:15:00Z,28.5990,-88.0189,11.0,24.7,11111222
Shell,ioos:station:wmo:42902:2,2021-05-01T18:24:00Z,28.5990,-88.0189,11.0,24.7,11111222
Shell,ioos:station:wmo:42902:2,2021-05-01T18:34:00Z,28.5990,-88.0189,11.0,24.7,11111222
Shell,ioos:station:wmo:42902:2,2021-05-01T18:44:00Z,28.5990,-88.0189,11.0,24.7,11111222
Shell,ioos:station:wmo:42902:2,2021-05-01T18:54:00Z,28.5990,-88.0189,11.0,24.7,11111222
Shell,ioos:station:wmo:42902:2,2021-05-01T19:04:00Z,28.5990,-88.0189,11.0,24.7,11111222
Shell,ioos:station:wmo:42902:2,2021-05-01T19:14:00Z,28.5990,-88.0189,11.0,24.7,11111222
Shell,ioos:station:wmo:42902:2,2021-05-01T19:24:00Z,28.5990,-88.0189,11.0,24.8,11111222
Shell,ioos:station:wmo:42902:2,2021-05-01T19:34:00Z,28.5990,-88.0189,11.0,24.7,11111222
Shell,ioos:station:wmo:42902:2,2021-05-01T19:44:00Z,28.5990,-88.0189,11.0,24.7,11111222
Shell,ioos:station:wmo:42902:2,2021-05-01T19:55:00Z,28.5990,-88.0189,11.0,24.7,11111222
Shell,ioos:station:wmo:42902:2,2021-05-01T20:04:00Z,28.5990,-88.0189,11.0,24.7,11111222
Shell,ioos:station:wmo:42902:2,2021-05-01T20:14:00Z,28.5990,-88.0189,11.0,24.6,11111222
Shell,ioos:station:wmo:42902:2,2021-05-01T20:25:00Z,28.5990,-88.0189,11.0,24.6,11111222
Shell,ioos:station:wmo:42902:2,2021-05-01T20:34:00Z,28.5989,-88.0189,11.0,24.7,11111222
Shell,ioos:station:wmo:42902:2,2021-05-01T20:44:00Z,28.5990,-88.0189,11.0,24.7,11111222
Shell,ioos:station:wmo:42902:2,2021-05-01T20:54:00Z,28.5989,-88.0189,11.0,24.7,11111222
Shell,ioos:station:wmo:42902:2,2021-05-01T21:05:00Z,28.5990,-88.0189,11.0,24.6,11111222
Shell,ioos:station:wmo:42902:2,2021-05-01T21:14:00Z,28.5990,-88.0189,11.0,24.7,11111222
Shell,ioos:station:wmo:42902:2,2021-05-01T21:24:00Z,28.5990,-88.0189,11.0,24.7,11111222
Shell,ioos:station:wmo:42902:2,2021-05-01T21:35:00Z,28.5990,-88.0189,11.0,24.7,11111222
Shell,ioos:station:wmo:42902:2,2021-05-01T21:44:00Z,28.5990,-88.0189,11.0,24.7,11111222
Shell,ioos:station:wmo:42902:2,2021-05-01T21:54:00Z,28.5989,-88.0189,11.0,24.7,11111222
Shell,ioos:station:wmo:42902:2,2021-05-01T22:05:00Z,28.5990,-88.0189,11.0,24.7,11111222
Shell,ioos:station:wmo:42902:2,2021-05-01T22:14:00Z,28.5989,-88.0190,11.0,24.7,11111222
Shell,ioos:station:wmo:42902:2,2021-05-01T22:24:00Z,28.5990,-88.0189,11.0,24.7,11111222
Shell,ioos:station:wmo:42902:2,2021-05-01T22:34:00Z,28.5990,-88.0189,11.0,24.7,11111222
Shell,ioos:station:wmo:42902:2,2021-05-01T22:45:00Z,28.5990,-88.0189,11.0,24.7,11111222
Shell,ioos:station:wmo:42902:2,2021-05-01T22:54:00Z,28.5990,-88.0189,11.0,24.6,11111222
Shell,ioos:station:wmo:42902:2,2021-05-01T23:04:00Z,28.5990,-88.0189,11.0,24.6,11111222
Shell,ioos:station:wmo:42902:2,2021-05-01T23:15:00Z,28.5990,-88.0189,11.0,24.5,11111222
Shell,ioos:station:wmo:42902:2,2021-05-01T23:24:00Z,28.5990,-88.0189,11.0,24.6,11111222
Shell,ioos:station:wmo:42902:2,2021-05-01T23:34:00Z,28.5990,-88.0189,11.0,24.5,11111222
Shell,ioos:station:wmo:42902:2,2021-05-01T23:44:00Z,28.5990,-88.0189,11.0,24.5,11111222
Shell,ioos:station:wmo:42902:2,2021-05-01T23:54:00Z,28.5990,-88.0189,11.0,24.5,11111222
Shell,ioos:station:wmo:42902:2,2021-05-02T00:04:00Z,28.5990,-88.0189,11.0,24.5,11111222
Shell,ioos:station:wmo:42902:2,2021-05-02T00:14:00Z,28.5990,-88.0189,11.0,24.4,11111222
Shell,ioos:station:wmo:42902:2,2021-05-02T00:25:00Z,28.5990,-88.0189,11.0,24.4,11111222
Shell,ioos:station:wmo:42902:2,2021-05-02T00:34:00Z,28.5990,-88.0189,11.0,24.4,11111222
Shell,ioos:station:wmo:42902:2,2021-05-02T00:44:00Z,28.5990,-88.0189,11.0,24.3,11111222
Shell,ioos:station:wmo:42902:2,2021-05-02T00:54:00Z,28.5989,-88.0189,11.0,24.3,11111222
Shell,ioos:station:wmo:42902:2,2021-05-02T01:04:00Z,28.5990,-88.0189,11.0,24.3,11111222
Shell,ioos:station:wmo:42902:2,2021-05-02T01:14:00Z,28.5990,-88.0189,11.0,24.3,11111222
Shell,ioos:station:wmo:42902:2,2021-05-02T01:24:00Z,28.5990,-88.0189,11.0,24.4,11111222
Shell,ioos:station:wmo:42902:2,2021-05-02T01:35:00Z,28.5990,-88.0189,11.0,24.3,11111222
Shell,ioos:station:wmo:42902:2,2021-05-02T01:44:00Z,28.5990,-88.0189,11.0,24.3,11111222
Shell,ioos:station:wmo:42902:2,2021-05-02T01:54:00Z,28.5990,-88.0189,11.0,24.3,11111222
Shell,ioos:station:wmo:42902:2,2021-05-02T02:04:00Z,28.5989,-88.0189,11.0,24.3,11111222
Shell,ioos:station:wmo:42902:2,2021-05-02T02:14:00Z,28.5989,-88.0189,11.0,24.3,11111222
Shell,ioos:station:wmo:42902:2,2021-05-02T02:24:00Z,28.5990,-88.0189,11.0,24.2,11111222
Shell,ioos:station:wmo:42902:2,2021-05-02T02:34:00Z,28.5990,-88.0189,11.0,24.3,11111222
Shell,ioos:station:wmo:42902:2,2021-05-02T02:45:00Z,28.5990,-88.0189,11.0,24.3,11111222
Shell,ioos:station:wmo:42902:2,2021-05-02T02:54:00Z,28.5990,-88.0189,11.0,24.2,11111222
Shell,ioos:station:wmo:42902:2,2021-05-02T03:04:00Z,28.5990,-88.0189,11.0,24.2,11111222
Shell,ioos:station:wmo:42902:2,2021-05-02T03:14:00Z,28.5990,-88.0189,11.0,24.2,11111222
Shell,ioos:station:wmo:42902:2,2021-05-02T03:24:00Z,28.5990,-88.0189,11.0,24.3,11111222
Shell,ioos:station:wmo:42902:2,2021-05-02T03:34:00Z,28.5990,-88.0189,11.0,24.3,11111222
Shell,ioos:station:wmo:42902:2,2021-05-02T03:44:00Z,28.5990,-88.0189,11.0,24.3,11111222
Shell,ioos:station:wmo:42902:2,2021-05-02T03:55:00Z,28.5990,-88.0189,11.0,24.3,11111222
Shell,ioos:station:wmo:42902:2,2021-05-02T04:04:00Z,28.5990,-88.0189,11.0,24.2,11111222
Shell,ioos:station:wmo:42902:2,2021-05-02T04:14:00Z,28.5990,-88.0189,11.0,24.2,11111222
Shell,ioos:station:wmo:42902:2,2021-05-02T04:25:00Z,28.5990,-88.0189,11.0,24.1,11111222
Shell,ioos:station:wmo:42902:2,2021-05-02T04:34:00Z,28.5990,-88.0189,11.0,23.9,11111222
Shell,ioos:station:wmo:42902:2,2021-05-02T04:44:00Z,28.5990,-88.0189,11.0,23.9,11111222
Shell,ioos:station:wmo:42902:2,2021-05-02T04:54:00Z,28.5990,-88.0189,11.0,23.9,11111222
Shell,ioos:station:wmo:42902:2,2021-05-02T05:04:00Z,28.5990,-88.0189,11.0,24.0,11111222
Shell,ioos:station:wmo:42902:2,2021-05-02T05:14:00Z,28.5990,-88.0189,11.0,24.0,11111222
Shell,ioos:station:wmo:42902:2,2021-05-02T05:24:00Z,28.5990,-88.0189,11.0,23.9,11111222
Shell,ioos:station:wmo:42902:2,2021-05-02T05:34:00Z,28.5989,-88.0189,11.0,24.1,11111222
Shell,ioos:station:wmo:42902:2,2021-05-02T05:44:00Z,28.5990,-88.0189,11.0,24.2,11111222
Shell,ioos:station:wmo:42902:2,2021-05-02T05:54:00Z,28.5990,-88.0189,11.0,24.3,11111222
Shell,ioos:station:wmo:42902:2,2021-05-02T06:05:00Z,28.5990,-88.0189,11.0,24.3,11111222
Shell,ioos:station:wmo:42902:2,2021-05-02T06:14:00Z,28.5990,-88.0189,11.0,24.3,11111222
Shell,ioos:station:wmo:42902:2,2021-05-02T06:24:00Z,28.5990,-88.0189,11.0,24.3,11111222
Shell,ioos:station:wmo:42902:2,2021-05-02T06:35:00Z,28.5990,-88.0189,11.0,24.3,11111222
Shell,ioos:station:wmo:42902:2,2021-05-02T06:44:00Z,28.5990,-88.0189,11.0,24.4,11111222
Shell,ioos:station:wmo:42902:2,2021-05-02T06:54:00Z,28.5989,-88.0189,11.0,24.4,11111222
Shell,ioos:station:wmo:42902:2,2021-05-02T07:04:00Z,28.5989,-88.0189,11.0,24.3,11111222
Shell,ioos:station:wmo:42902:2,2021-05-02T07:14:00Z,28.5989,-88.0189,11.0,24.3,11111222
Shell,ioos:station:wmo:42902:2,2021-05-02T07:24:00Z,28.5990,-88.0189,11.0,24.4,11111222
Shell,ioos:station:wmo:42902:2,2021-05-02T07:34:00Z,28.5990,-88.0189,11.0,24.4,11111222
Shell,ioos:station:wmo:42902:2,2021-05-02T07:45:00Z,28.5990,-88.0189,11.0,24.3,11111222
Shell,ioos:station:wmo:42902:2,2021-05-02T07:54:00Z,28.5990,-88.0189,11.0,24.3,11111222
Shell,ioos:station:wmo:42902:2,2021-05-02T08:04:00Z,28.5990,-88.0189,11.0,24.3,11111222
Shell,ioos:station:wmo:42902:2,2021-05-02T08:14:00Z,28.5990,-88.0189,11.0,24.3,11111222
Shell,ioos:station:wmo:42902:2,2021-05-02T08:24:00Z,28.5990,-88.0189,11.0,24.3,11111222
Shell,ioos:station:wmo:42902:2,2021-05-02T08:34:00Z,28.5990,-88.0189,11.0,24.3,11111222
Shell,ioos:station:wmo:42902:2,2021-05-02T08:44:00Z,28.5990,-88.0189,11.0,24.3,11111222
Shell,ioos:station:wmo:42902:2,2021-05-02T08:55:00Z,28.5990,-88.0189,11.0,24.3,11111222
Shell,ioos:station:wmo:42902:2,2021-05-02T09:04:00Z,28.5990,-88.0189,11.0,24.3,11111222
Shell,ioos:station:wmo:42902:2,2021-05-02T09:14:00Z,28.5990,-88.0189,11.0,24.3,11111222
Shell,ioos:station:wmo:42902:2,2021-05-02T09:24:00Z,28.5990,-88.0189,11.0,24.3,11111222
Shell,ioos:station:wmo:42902:2,2021-05-02T09:34:00Z,28.5990,-88.0189,11.0,24.3,11111222
Shell,ioos:station:wmo:42902:2,2021-05-02T09:44:00Z,28.5990,-88.0189,11.0,24.3,11111222
Shell,ioos:station:wmo:42902:2,2021-05-02T09:54:00Z,28.5990,-88.0189,11.0,24.3,11111222
Shell,ioos:station:wmo:42902:2,2021-05-02T10:05:00Z,28.5990,-88.0189,11.0,24.3,11111222
Shell,ioos:station:wmo:42902:2,2021-05-02T10:14:00Z,28.5990,-88.0189,11.0,24.3,11111222
Shell,ioos:station:wmo:42902:2,2021-05-02T10:24:00Z,28.5990,-88.0189,11.0,24.3,11111222
Shell,ioos:station:wmo:42902:2,2021-05-02T10:35:00Z,28.5990,-88.0189,11.0,24.3,11111222
Shell,ioos:station:wmo:42902:2,2021-05-02T10:44:00Z,28.5990,-88.0189,11.0,24.3,11111222
Shell,ioos:station:wmo:42902:2,2021-05-02T10:54:00Z,28.5990,-88.0189,11.0,24.3,11111222
Shell,ioos:station:wmo:42902:2,2021-05-02T11:04:00Z,28.5990,-88.0189,11.0,24.3,11111222
Shell,ioos:station:wmo:42902:2,2021-05-02T11:14:00Z,28.5990,-88.0189,11.0,24.3,11111222
Shell,ioos:station:wmo:42902:2,2021-05-02T11:24:00Z,28.5990,-88.0189,11.0,24.2,11111222
Shell,ioos:station:wmo:42902:2,2021-05-02T11:34:00Z,28.5990,-88.0189,11.0,24.3,11111222
Shell,ioos:station:wmo:42902:2,2021-05-02T11:45:00Z,28.5990,-88.0189,11.0,24.3,11111222
Shell,ioos:station:wmo:42902:2,2021-05-02T11:54:00Z,28.5990,-88.0189,11.0,24.2,11111222
Shell,ioos:station:wmo:42902:2,2021-05-02T12:04:00Z,28.5990,-88.0189,11.0,24.2,11111222
Shell,ioos:station:wmo:42902:2,2021-05-02T12:14:00Z,28.5990,-88.0189,11.0,24.3,11111222
Shell,ioos:station:wmo:42902:2,2021-05-02T12:24:00Z,28.5990,-88.0189,11.0,24.2,11111222
Shell,ioos:station:wmo:42902:2,2021-05-02T12:34:00Z,28.5990,-88.0189,11.0,24.2,11111222
Shell,ioos:station:wmo:42902:2,2021-05-02T12:44:00Z,28.5990,-88.0189,11.0,24.2,11111222
Shell,ioos:station:wmo:42902:2,2021-05-02T12:55:00Z,28.5990,-88.0189,11.0,24.1,11111222
Shell,ioos:station:wmo:42902:2,2021-05-02T13:04:00Z,28.5990,-88.0189,11.0,24.1,11111222
Shell,ioos:station:wmo:42902:2,2021-05-02T13:14:00Z,28.5990,-88.0189,11.0,24.1,11111222
Shell,ioos:station:wmo:42902:2,2021-05-02T13:25:00Z,28.5990,-88.0189,11.0,24.1,11111222
Shell,ioos:station:wmo:42902:2,2021-05-02T13:34:00Z,28.5990,-88.0189,11.0,24.1,11111222
Shell,ioos:station:wmo:42902:2,2021-05-02T13:44:00Z,28.5990,-88.0189,11.0,24.1,11111222
Shell,ioos:station:wmo:42902:2,2021-05-02T13:54:00Z,28.5990,-88.0189,11.0,24.2,11111222
Shell,ioos:station:wmo:42902:2,2021-05-02T14:04:00Z,28.5990,-88.0189,11.0,24.2,11111222
Shell,ioos:station:wmo:42902:2,2021-05-02T14:14:00Z,28.5990,-88.0189,11.0,24.3,11111222
Shell,ioos:station:wmo:42902:2,2021-05-02T14:24:00Z,28.5989,-88.0189,11.0,24.3,11111222
Shell,ioos:station:wmo:42902:2,2021-05-02T14:34:00Z,28.5989,-88.0189,11.0,24.3,11111222
Shell,ioos:station:wmo:42902:2,2021-05-02T14:44:00Z,28.5990,-88.0189,11.0,24.3,11111222
Shell,ioos:station:wmo:42902:2,2021-05-02T14:54:00Z,28.5990,-88.0189,11.0,24.2,11111222
Shell,ioos:station:wmo:42902:2,2021-05-02T15:05:00Z,28.5990,-88.0189,11.0,24.2,11111222
Shell,ioos:station:wmo:42902:2,2021-05-02T15:14:00Z,28.5990,-88.0189,11.0,24.2,11111222
Shell,ioos:station:wmo:42902:2,2021-05-02T15:24:00Z,28.5990,-88.0189,11.0,24.2,11111222
Shell,ioos:station:wmo:42902:2,2021-05-02T15:34:00Z,28.5990,-88.0189,11.0,24.2,11111222
Shell,ioos:station:wmo:42902:2,2021-05-02T15:44:00Z,28.5990,-88.0189,11.0,24.2,11111222
Shell,ioos:station:wmo:42902:2,2021-05-02T15:54:00Z,28.5990,-88.0189,11.0,24.3,11111222
Shell,ioos:station:wmo:42902:2,2021-05-02T16:04:00Z,28.5990,-88.0189,11.0,24.3,11111222
Shell,ioos:station:wmo:42902:2,2021-05-02T16:14:00Z,28.5990,-88.0189,11.0,24.3,11111222
Shell,ioos:station:wmo:42902:2,2021-05-02T16:24:00Z,28.5990,-88.0189,11.0,24.2,11111222
Shell,ioos:station:wmo:42902:2,2021-05-02T16:34:00Z,28.5990,-88.0189,11.0,24.1,11111222
Shell,ioos:station:wmo:42902:2,2021-05-02T16:44:00Z,28.5990,-88.0189,11.0,24.1,11111222
Shell,ioos:station:wmo:42902:2,2021-05-02T16:54:00Z,28.5990,-88.0189,11.0,24.1,11111222
Shell,ioos:station:wmo:42902:2,2021-05-02T17:04:00Z,28.5990,-88.0189,11.0,24.3,11111222
Shell,ioos:station:wmo:42902:2,2021-05-02T17:15:00Z,28.5990,-88.0189,11.0,24.4,11111222
Shell,ioos:station:wmo:42902:2,2021-05-02T17:24:00Z,28.5990,-88.0189,11.0,24.4,11111222
Shell,ioos:station:wmo:42902:2,2021-05-02T17:34:00Z,28.5990,-88.0189,11.0,24.4,11111222
Shell,ioos:station:wmo:42902:2,2021-05-02T17:45:00Z,28.5990,-88.0189,11.0,24.4,11111222
Shell,ioos:station:wmo:42902:2,2021-05-02T17:54:00Z,28.5990,-88.0189,11.0,24.4,11111222
Shell,ioos:station:wmo:42902:2,2021-05-02T18:04:00Z,28.5990,-88.0189,11.0,24.4,11111222
Shell,ioos:station:wmo:42902:2,2021-05-02T18:14:00Z,28.5990,-88.0189,11.0,24.4,11111222
Shell,ioos:station:wmo:42902:2,2021-05-02T18:24:00Z,28.5990,-88.0189,11.0,24.4,11111222
Shell,ioos:station:wmo:42902:2,2021-05-02T18:34:00Z,28.5990,-88.0189,11.0,24.5,11111222
Shell,ioos:station:wmo:42902:2,2021-05-02T18:44:00Z,28.5990,-88.0189,11.0,24.5,11111222
Shell,ioos:station:wmo:42902:2,2021-05-02T18:55:00Z,28.5990,-88.0189,11.0,24.5,11111222
Shell,ioos:station:wmo:42902:2,2021-05-02T19:04:00Z,28.5990,-88.0189,11.0,24.5,11111222
Shell,ioos:station:wmo:42902:2,2021-05-02T19:14:00Z,28.5990,-88.0189,11.0,24.5,11111222
Shell,ioos:station:wmo:42902:2,2021-05-02T19:25:00Z,28.5990,-88.0189,11.0,24.5,11111222
Shell,ioos:station:wmo:42902:2,2021-05-02T19:34:00Z,28.5990,-88.0189,11.0,24.5,11111222
Shell,ioos:station:wmo:42902:2,2021-05-02T19:44:00Z,28.5990,-88.0189,11.0,24.5,11111222
Shell,ioos:station:wmo:42902:2,2021-05-02T19:54:00Z,28.5990,-88.0189,11.0,24.4,11111222
Shell,ioos:station:wmo:42902:2,2021-05-02T20:04:00Z,28.5994,-88.0190,11.0,24.2,11111222
Shell,ioos:station:wmo:42902:2,2021-05-02T20:14:00Z,28.5994,-88.0190,11.0,24.2,11111222
Shell,ioos:station:wmo:42902:2,2021-05-02T20:24:00Z,28.5993,-88.0190,11.0,24.3,11111222
Shell,ioos:station:wmo:42902:2,2021-05-02T20:35:00Z,28.5994,-88.0190,11.0,24.3,11111222